[source: ADDS]
METAR
EDVE 121620Z 10009KT CAVOK 32/10 Q1015

TAF EDVE 121700Z 1218/1221 10011KT CAVOK BECMG 1218/1220 11006KT EDDV 121820Z 09007KT 9999 -SHRA FEW040 SCT060TCU 30/10 Q1014 TEMPO 11015G25KT SHRA BKN045CB

TAF EDDV 121700Z 1218/1318 08012KT CAVOK TEMPO 1218/1219 11015G25KT SHRA BKN050CB BECMG 1219/1221 08007KT PROB30 TEMPO 1223/1303 16015G25KT -TSRA BKN045CB PROB30 TEMPO 1315/1318 24015G30KT TSRA BKN055CB ETHS 121720Z 09011KT 9999 FEW090 30/11 Q1015 BLU+BLU+

TAF COR ETHS 121714Z 1217/1302 12012G22KT 9999 NSW FEW120 SCT350 BECMG 1218/1220 12008KT 9999 NSW FEW120 SCT350 ETHC 121720Z 08010KT 9999 FEW090 SCT110 32/09 Q1014 BLU+

TAF ETHC 121320Z 1214/1223 11010G20KT 9999 NSW FEW070 SCT320 EDVK 121820Z 36004KT CAVOK 23/18 Q1015

TAF EDVK 121700Z 1218/1303 11006KT CAVOK TEMPO 1219/1224 TSRA SCT055CB PROB40 TEMPO 1220/1224 20020G35KT 3000 +TSRA BKN050CB
TAF
TAF EDVE 121700Z 1218/1221 10011KT CAVOK BECMG 1218/1220 11006KT

TAF EDDV 121700Z 1218/1318 08012KT CAVOK TEMPO 1218/1219 11015G25KT SHRA BKN050CB BECMG 1219/1221 08007KT PROB30 TEMPO 1223/1303 16015G25KT -TSRA BKN045CB PROB30 TEMPO 1315/1318 24015G30KT TSRA BKN055CB

TAF COR ETHS 121714Z 1217/1302 12012G22KT 9999 NSW FEW120 SCT350 BECMG 1218/1220 12008KT 9999 NSW FEW120 SCT350

TAF ETHC 121320Z 1214/1223 11010G20KT 9999 NSW FEW070 SCT320

TAF EDVK 121700Z 1218/1303 11006KT CAVOK TEMPO 1219/1224 TSRA SCT055CB PROB40 TEMPO 1220/1224 20020G35KT 3000 +TSRA BKN050CB

SR / SS: 03:57 / 18:48 UTC (EDVE 2020-08-12)
Willkommen in der FFG Paul! Viel Erfolg bei der Ausbildung! +++ Wir begrüßen Julian und Martin als neue Mitglieder der FFG! Viel Erfolg bei der Ausbildung! +++ Oliver hat seinen ersten Alleinflug absolviert! Herzlichen Glückwunsch und weiterhin Happy Landings! +++ Wir begrüßen Gianluca in den Reihen der FFG! Viel Erfolg bei der Ausbildung! +++ Schon wieder zwei neue Mitglieder, herzlich Willkommen Andreas und Thomas! +++ Willkommen in der FFG Fabian! +++ Jens hat die praktische Prüfung bestanden! Herzlichen Glückwunsch und allzeit guten Flug! +++ Wir begrüßen Christopher als neues Mitglied der FFG! Always Happy Landings! +++ Flugbetrieb und Ausbildungsbetrieb unter Auflagen wieder möglich. +++ Gero steht ebenfalls als Fluglehrer zur Verfügung! Vielen Dank an Gero und viel Erfolg beim Ausbilden. +++ Ilya hat die Theorieprüfung bestanden! Herzlichen Glückwunsch und weiterhin viel Erfolg für die restliche Ausbildung!

wenig -> mittel -> viel

Professionelle Piloten arbeiten mit Checkliste
Ausdrucken und abarbeiten! Vorbereitete Links helfen bei der Beschaffung der notwendigen Informationen.

Weiterlesen ...

Hier gibt es die AIP mit allen erforderlichen Karten die im Abo der FFG liegen zum Download für unsere Mitglieder.

Letztes NOTAM EDVE
von 15.08.2020 0000Z bis 31.10.2020 2359Z
SAT SUN H24
REFUELLING WITH JET-A1 PPR. ALL REQ BY E-MAIL ONLY TO: GAT(AT)FHBWE.DE

Letztes NOTAM EDBC
von 12.08.2020 0838Z bis 10.11.2020 2359Z
ALL VFR AND IFR PROC TEMPO SUSPENDED. USABLE ONLY FOR FLIGHT VALIDATION.

Letztes NOTAM EDVM
von 11.09.2020 1500Z bis 13.09.2020 1600Z
AD CLSD.

Letztes NOTAM EDOV
von 16.08.2020 0400Z bis 06.09.2020 1700Z
DAILY SR-SS
GLIDER ACTIVITY AND FLIGHT TEST ACTIVITY 10NM RADIUS CENTERED ON 5238N 01149E, STENDAL-BORSTEL.
GND- FL095

Letztes NOTAM EDVI
von 17.08.2020 0000Z bis 18.09.2020 2359Z
MON-FRI H24
ASPHALT RWY 13/31 CLSD. GLIDER STRIP (640M) AVBL PPR.

Letztes NOTAM EDDV
von 11.08.2020 0500Z bis 13.08.2020 1500Z
DAILY 0500-1500
NOISE ABATEMENT FACILITY AVBL 30MIN IN ADVANCE. FOR RUN-UP CALL AIRPORT SUPERVISOR +49 511 9771455.

Letztes NOTAM EDVK
von 07.08.2020 1120Z bis 21.08.2020 2159Z
RWY END IDENTIFIER LIGHTS RWY 27 U/S.

Letztes NOTAM EDVS
von 03.08.2020 0917Z bis 01.11.2020 2359Z
AD AVBL ONLY FOR HOMEBASED PILOTS.

          aerodata150     Radio38